| time (UTC) | temp C | wind direction | speed KPH | gust KPH | rain 1hr cm | rain 24hr cm | rain mn cm | humidity % | barometer mb |
| 20260509032739 | 6 | 355 | 9.7 | 14.5 | 0.05 | 0.00 | 0.03 | 74 | 1021.0 |
| 20260509032239 | 6 | 0 | 8.0 | 12.9 | 0.23 | 0.00 | 0.03 | 72 | 1020.0 |
| 20260509031740 | 6 | 337 | 6.4 | 11.3 | 0.08 | 0.00 | 0.00 | 70 | 1020.0 |
| 20260509031239 | 6 | 343 | 3.2 | 6.4 | 0.00 | 0.00 | 0.00 | 68 | 1020.0 |
| 20260509030739 | 6 | 8 | 4.8 | 6.4 | 0.00 | 0.00 | 0.00 | 66 | 1020.0 |
| 20260509030239 | 6 | 145 | 1.6 | 4.8 | 0.00 | 0.00 | 0.00 | 66 | 1020.0 |
| 20260509025739 | 6 | 250 | 1.6 | 4.8 | 0.00 | 0.00 | 0.00 | 65 | 1020.0 |
| 20260509025239 | 6 | 48 | 1.6 | 4.8 | 0.00 | 0.00 | 0.00 | 64 | 1020.0 |
| 20260509024739 | 6 | 11 | 1.6 | 3.2 | 0.00 | 0.00 | 0.00 | 65 | 1019.0 |
| 20260509024239 | 6 | 246 | 3.2 | 6.4 | 0.00 | 0.00 | 0.00 | 66 | 1019.0 |
| 20260509023739 | 6 | 258 | 3.2 | 6.4 | 0.00 | 0.00 | 0.00 | 65 | 1019.0 |
| 20260509023240 | 6 | 345 | 1.6 | 3.2 | 0.00 | 0.00 | 0.00 | 64 | 1019.0 |
| 20260509022739 | 6 | 188 | 8.0 | 12.9 | 0.00 | 0.00 | 0.00 | 64 | 1018.0 |
| 20260509022239 | 6 | 319 | 6.4 | 8.0 | 0.00 | 0.00 | 0.00 | 66 | 1019.0 |
| 20260509021739 | 6 | 235 | 4.8 | 6.4 | 0.00 | 0.00 | 0.00 | 66 | 1018.0 |
| 20260509021239 | 6 | 349 | 1.6 | 3.2 | 0.00 | 0.00 | 0.00 | 66 | 1018.0 |
| 20260509020739 | 6 | 2 | 3.2 | 4.8 | 0.00 | 0.00 | 0.00 | 65 | 1018.0 |
| 20260509020239 | 6 | 334 | 6.4 | 9.7 | 0.00 | 0.00 | 0.00 | 64 | 1018.0 |
| 20260509015740 | 6 | 1 | 3.2 | 6.4 | 0.00 | 0.00 | 0.00 | 64 | 1018.0 |
| 20260509015239 | 6 | 4 | 6.4 | 11.3 | 0.00 | 0.00 | 0.00 | 66 | 1018.0 |
| 20260509014739 | 6 | 3 | 8.0 | 14.5 | 0.00 | 0.00 | 0.00 | 65 | 1018.0 |
| 20260509014239 | 6 | 2 | 8.0 | 16.1 | 0.00 | 0.00 | 0.00 | 66 | 1018.0 |
| 20260509013739 | 6 | 353 | 9.7 | 17.7 | 0.00 | 0.00 | 0.00 | 65 | 1017.0 |
| 20260509013239 | 6 | 3 | 8.0 | 14.5 | 0.00 | 0.00 | 0.00 | 65 | 1017.0 |
| 20260509012739 | 6 | 2 | 9.7 | 19.3 | 0.00 | 0.00 | 0.00 | 65 | 1017.0 |
| 20260509012240 | 5 | 1 | 12.9 | 27.4 | 0.00 | 0.00 | 0.00 | 66 | 1017.0 |
| 20260509011739 | 5 | 17 | 9.7 | 17.7 | 0.00 | 0.00 | 0.00 | 66 | 1016.0 |
| 20260509011239 | 5 | 355 | 8.0 | 16.1 | 0.00 | 0.00 | 0.00 | 67 | 1016.0 |
| 20260509010740 | 5 | 19 | 6.4 | 9.7 | 0.00 | 0.00 | 0.00 | 67 | 1016.0 |
| 20260509010239 | 6 | 12 | 8.0 | 19.3 | 0.00 | 0.00 | 0.00 | 67 | 1016.0 |
| 20260509005739 | 6 | 5 | 6.4 | 17.7 | 0.00 | 0.00 | 0.00 | 67 | 1016.0 |
| 20260509005239 | 6 | 10 | 6.4 | 12.9 | 0.00 | 0.00 | 0.00 | 67 | 1016.0 |
| 20260509004739 | 6 | 7 | 9.7 | 17.7 | 0.00 | 0.00 | 0.00 | 65 | 1016.0 |
| 20260509004239 | 6 | 11 | 8.0 | 14.5 | 0.00 | 0.00 | 0.00 | 64 | 1016.0 |
| 20260509003739 | 6 | 193 | 1.6 | 3.2 | 0.00 | 0.00 | 0.00 | 66 | 1015.0 |
| 20260509003239 | 5 | 187 | 3.2 | 4.8 | 0.00 | 0.00 | 0.00 | 65 | 1015.0 |
| 20260509002739 | 5 | 189 | 3.2 | 4.8 | 0.00 | 0.00 | 0.00 | 70 | 1015.0 |
| 20260509002239 | 5 | 202 | 3.2 | 4.8 | 0.00 | 0.00 | 0.00 | 75 | 1015.0 |
| 20260509001739 | 4 | 208 | 3.2 | 4.8 | 0.00 | 0.00 | 0.00 | 76 | 1014.0 |
| 20260509001239 | 4 | 202 | 3.2 | 4.8 | 0.00 | 0.00 | 0.00 | 75 | 1014.0 |
| 20260509000739 | 3 | 191 | 0.0 | 0.0 | 0.00 | 0.00 | 0.00 | 78 | 1014.0 |
| 20260509000241 | 3 | 253 | 0.0 | 0.0 | 0.00 | 0.00 | 0.00 | 78 | 1014.0 |
| 20260508235739 | 3 | 320 | 1.6 | 3.2 | 0.00 | 0.00 | 0.00 | 78 | 1014.0 |
| 20260508235239 | 3 | 216 | 1.6 | 3.2 | 0.00 | 0.00 | 0.00 | 78 | 1014.0 |
| 20260508234739 | 3 | 238 | 0.0 | 1.6 | 0.00 | 0.00 | 0.00 | 79 | 1013.0 |
| 20260508234240 | 3 | 224 | 0.0 | 1.6 | 0.00 | 0.00 | 0.00 | 77 | 1013.0 |
| 20260508233739 | 3 | 287 | 1.6 | 3.2 | 0.00 | 0.00 | 0.00 | 75 | 1013.0 |
| 20260508233239 | 3 | 283 | 1.6 | 3.2 | 0.00 | 0.00 | 0.00 | 76 | 1013.0 |
| 20260508232739 | 3 | 301 | 0.0 | 1.6 | 0.00 | 0.00 | 0.00 | 76 | 1013.0 |
| 20260508232240 | 3 | 273 | 3.2 | 3.2 | 0.00 | 0.00 | 0.00 | 75 | 1013.0 |
| 20260508231739 | 3 | 280 | 1.6 | 3.2 | 0.00 | 0.00 | 0.00 | 73 | 1013.0 |
| 20260508231239 | 3 | 328 | 1.6 | 3.2 | 0.00 | 0.00 | 0.00 | 75 | 1012.0 |
| 20260508230740 | 4 | 297 | 1.6 | 3.2 | 0.00 | 0.00 | 0.00 | 73 | 1012.0 |
| 20260508230240 | 4 | 275 | 0.0 | 1.6 | 0.00 | 0.00 | 0.00 | 72 | 1012.0 |
| 20260508225739 | 5 | 259 | 0.0 | 1.6 | 0.00 | 0.00 | 0.00 | 70 | 1012.0 |
| 20260508225240 | 5 | 276 | 1.6 | 1.6 | 0.00 | 0.00 | 0.00 | 72 | 1012.0 |
| 20260508224739 | 5 | 284 | 1.6 | 3.2 | 0.00 | 0.00 | 0.00 | 71 | 1012.0 |
| 20260508224240 | 5 | 225 | 0.0 | 1.6 | 0.00 | 0.00 | 0.00 | 72 | 1012.0 |
| 20260508223739 | 5 | 286 | 3.2 | 3.2 | 0.00 | 0.00 | 0.00 | 72 | 1012.0 |
| 20260508223239 | 5 | 303 | 1.6 | 3.2 | 0.00 | 0.00 | 0.00 | 70 | 1012.0 |
| 20260508222739 | 5 | 256 | 1.6 | 3.2 | 0.00 | 0.00 | 0.00 | 70 | 1012.0 |
| 20260508222239 | 5 | 248 | 1.6 | 3.2 | 0.00 | 0.00 | 0.00 | 70 | 1011.0 |
| 20260508221739 | 6 | 283 | 3.2 | 3.2 | 0.00 | 0.00 | 0.00 | 70 | 1011.0 |
| 20260508221240 | 6 | 282 | 1.6 | 3.2 | 0.00 | 0.00 | 0.00 | 69 | 1011.0 |
| 20260508220739 | 7 | 324 | 1.6 | 3.2 | 0.00 | 0.00 | 0.00 | 68 | 1011.0 |
| 20260508220239 | 7 | 274 | 0.0 | 3.2 | 0.00 | 0.00 | 0.00 | 65 | 1011.0 |
| 20260508215739 | 8 | 289 | 1.6 | 4.8 | 0.00 | 0.00 | 0.00 | 60 | 1011.0 |
| 20260508215239 | 8 | 275 | 0.0 | 1.6 | 0.00 | 0.00 | 0.00 | 54 | 1011.0 |
| 20260508214740 | 9 | 286 | 3.2 | 4.8 | 0.00 | 0.00 | 0.00 | 56 | 1011.0 |
| 20260508214239 | 10 | 0 | 0.0 | 0.0 | 0.00 | 0.00 | 0.00 | 49 | 1011.0 |
| 20260508213739 | 10 | 303 | 1.6 | 3.2 | 0.00 | 0.00 | 0.00 | 44 | 1011.0 |
| 20260508213239 | 11 | 277 | 1.6 | 3.2 | 0.00 | 0.00 | 0.00 | 39 | 1011.0 |
| 20260508212739 | 11 | 283 | 1.6 | 1.6 | 0.00 | 0.00 | 0.00 | 36 | 1011.0 |
| 20260508212239 | 12 | 309 | 1.6 | 1.6 | 0.00 | 0.00 | 0.00 | 33 | 1011.0 |
| 20260508211739 | 12 | 322 | 1.6 | 3.2 | 0.00 | 0.00 | 0.00 | 32 | 1011.0 |
| 20260508211239 | 13 | 325 | 1.6 | 3.2 | 0.00 | 0.00 | 0.00 | 29 | 1011.0 |
| 20260508210739 | 13 | 273 | 0.0 | 0.0 | 0.00 | 0.00 | 0.00 | 30 | 1011.0 |
| 20260508210239 | 13 | 359 | 1.6 | 6.4 | 0.00 | 0.00 | 0.00 | 28 | 1011.0 |
| 20260508205739 | 14 | 312 | 0.0 | 1.6 | 0.00 | 0.00 | 0.00 | 26 | 1011.0 |
| 20260508205240 | 15 | 133 | 0.0 | 0.0 | 0.00 | 0.00 | 0.00 | 26 | 1011.0 |
| 20260508204740 | 15 | 24 | 0.0 | 1.6 | 0.00 | 0.00 | 0.00 | 24 | 1011.0 |
| 20260508204239 | 15 | 324 | 0.0 | 3.2 | 0.00 | 0.00 | 0.00 | 25 | 1011.0 |
| 20260508203740 | 15 | 346 | 1.6 | 3.2 | 0.00 | 0.00 | 0.00 | 26 | 1011.0 |
| 20260508203240 | 15 | 339 | 3.2 | 4.8 | 0.00 | 0.00 | 0.00 | 24 | 1011.0 |
| 20260508202740 | 15 | 321 | 1.6 | 4.8 | 0.00 | 0.00 | 0.00 | 26 | 1011.0 |
| 20260508202240 | 15 | 349 | 3.2 | 4.8 | 0.00 | 0.00 | 0.00 | 24 | 1011.0 |
| 20260508201741 | 15 | 339 | 3.2 | 4.8 | 0.00 | 0.00 | 0.00 | 26 | 1011.0 |
| 20260508201239 | 15 | 345 | 3.2 | 6.4 | 0.00 | 0.00 | 0.00 | 25 | 1011.0 |
| 20260508200740 | 15 | 357 | 4.8 | 8.0 | 0.00 | 0.00 | 0.00 | 24 | 1011.0 |
| 20260508200240 | 15 | 40 | 1.6 | 6.4 | 0.00 | 0.00 | 0.00 | 23 | 1011.0 |
| 20260508195740 | 15 | 40 | 3.2 | 6.4 | 0.00 | 0.00 | 0.00 | 25 | 1011.0 |
| 20260508195239 | 15 | 6 | 3.2 | 3.2 | 0.00 | 0.00 | 0.00 | 24 | 1011.0 |
| 20260508194739 | 15 | 348 | 3.2 | 6.4 | 0.00 | 0.00 | 0.00 | 25 | 1011.0 |
| 20260508194239 | 16 | 0 | 1.6 | 3.2 | 0.00 | 0.00 | 0.00 | 25 | 1011.0 |
| 20260508193741 | 16 | 334 | 4.8 | 6.4 | 0.00 | 0.00 | 0.00 | 23 | 1011.0 |
| 20260508193239 | 16 | 90 | 1.6 | 4.8 | 0.00 | 0.00 | 0.00 | 27 | 1011.0 |
| 20260508192739 | 16 | 334 | 3.2 | 6.4 | 0.00 | 0.00 | 0.00 | 26 | 1011.0 |
| 20260508191759 | 16 | 341 | 4.8 | 8.0 | 0.00 | 0.00 | 0.00 | 25 | 1011.0 |
| 20260508191239 | 16 | 323 | 6.4 | 9.7 | 0.00 | 0.00 | 0.00 | 25 | 1012.0 |
| 20260508190740 | 16 | 325 | 1.6 | 4.8 | 0.00 | 0.00 | 0.00 | 26 | 1012.0 |
| 20260508190239 | 16 | 35 | 1.6 | 4.8 | 0.00 | 0.00 | 0.00 | 27 | 1012.0 |
| 20260508185739 | 16 | 106 | 4.8 | 9.7 | 0.00 | 0.00 | 0.00 | 27 | 1012.0 |
| 20260508185239 | 16 | 337 | 4.8 | 9.7 | 0.00 | 0.00 | 0.00 | 30 | 1012.0 |
| 20260508184740 | 16 | 351 | 4.8 | 8.0 | 0.00 | 0.00 | 0.00 | 26 | 1012.0 |
| 20260508184239 | 16 | 72 | 3.2 | 4.8 | 0.00 | 0.00 | 0.00 | 26 | 1012.0 |
| 20260508183739 | 15 | 42 | 1.6 | 3.2 | 0.00 | 0.00 | 0.00 | 26 | 1012.0 |
| 20260508183239 | 15 | 101 | 3.2 | 6.4 | 0.00 | 0.00 | 0.00 | 28 | 1012.0 |
| 20260508182739 | 15 | 133 | 1.6 | 3.2 | 0.00 | 0.00 | 0.00 | 27 | 1012.0 |
| 20260508182239 | 15 | 150 | 4.8 | 6.4 | 0.00 | 0.00 | 0.00 | 24 | 1012.0 |
| 20260508181740 | 15 | 83 | 1.6 | 3.2 | 0.00 | 0.00 | 0.00 | 26 | 1012.0 |
| 20260508181241 | 15 | 315 | 3.2 | 8.0 | 0.00 | 0.00 | 0.00 | 28 | 1012.0 |
| 20260508180739 | 15 | 264 | 4.8 | 8.0 | 0.00 | 0.00 | 0.00 | 29 | 1012.0 |
| 20260508180239 | 15 | 219 | 3.2 | 6.4 | 0.00 | 0.00 | 0.00 | 27 | 1012.0 |
| 20260508175739 | 15 | 54 | 3.2 | 4.8 | 0.00 | 0.00 | 0.00 | 28 | 1012.0 |
| 20260508175240 | 15 | 334 | 1.6 | 4.8 | 0.00 | 0.00 | 0.00 | 30 | 1012.0 |
| 20260508174739 | 15 | 335 | 3.2 | 6.4 | 0.00 | 0.00 | 0.00 | 28 | 1012.0 |
| 20260508174239 | 14 | 288 | 1.6 | 4.8 | 0.00 | 0.00 | 0.00 | 30 | 1013.0 |
| 20260508173740 | 14 | 248 | 4.8 | 8.0 | 0.00 | 0.00 | 0.00 | 27 | 1013.0 |
| 20260508173239 | 15 | 267 | 6.4 | 11.3 | 0.00 | 0.00 | 0.00 | 29 | 1013.0 |
| 20260508172743 | 15 | 355 | 3.2 | 6.4 | 0.00 | 0.00 | 0.00 | 28 | 1013.0 |
| 20260508172240 | 15 | 341 | 0.0 | 4.8 | 0.00 | 0.00 | 0.00 | 30 | 1013.0 |
| 20260508171739 | 14 | 311 | 3.2 | 4.8 | 0.00 | 0.00 | 0.00 | 29 | 1013.0 |
| 20260508171239 | 13 | 156 | 3.2 | 4.8 | 0.00 | 0.00 | 0.00 | 28 | 1013.0 |
| 20260508170739 | 13 | 128 | 4.8 | 9.7 | 0.00 | 0.00 | 0.00 | 31 | 1013.0 |
| 20260508170239 | 13 | 124 | 3.2 | 4.8 | 0.00 | 0.00 | 0.00 | 27 | 1013.0 |
| 20260508165740 | 13 | 94 | 3.2 | 6.4 | 0.00 | 0.00 | 0.00 | 28 | 1013.0 |
| 20260508165239 | 14 | 67 | 3.2 | 4.8 | 0.00 | 0.00 | 0.00 | 30 | 1014.0 |
| 20260508164739 | 13 | 36 | 3.2 | 4.8 | 0.00 | 0.00 | 0.00 | 31 | 1014.0 |
| 20260508164239 | 14 | 139 | 4.8 | 9.7 | 0.00 | 0.00 | 0.00 | 28 | 1014.0 |
| 20260508163741 | 13 | 284 | 3.2 | 6.4 | 0.00 | 0.00 | 0.00 | 33 | 1014.0 |
| 20260508163239 | 13 | 322 | 3.2 | 4.8 | 0.00 | 0.00 | 0.00 | 32 | 1014.0 |
| 20260508162739 | 13 | 290 | 3.2 | 6.4 | 0.00 | 0.00 | 0.00 | 31 | 1014.0 |
| 20260508162241 | 12 | 123 | 1.6 | 4.8 | 0.00 | 0.00 | 0.00 | 30 | 1014.0 |
| 20260508161739 | 12 | 351 | 6.4 | 8.0 | 0.00 | 0.00 | 0.00 | 31 | 1014.0 |
| 20260508161240 | 12 | 356 | 3.2 | 8.0 | 0.00 | 0.00 | 0.00 | 31 | 1015.0 |
| 20260508160740 | 12 | 315 | 3.2 | 4.8 | 0.00 | 0.00 | 0.00 | 32 | 1015.0 |
| 20260508160240 | 12 | 348 | 4.8 | 9.7 | 0.00 | 0.00 | 0.00 | 32 | 1015.0 |
| 20260508155741 | 12 | 139 | 3.2 | 8.0 | 0.00 | 0.00 | 0.00 | 29 | 1015.0 |
| 20260508155240 | 12 | 341 | 1.6 | 4.8 | 0.00 | 0.00 | 0.00 | 30 | 1015.0 |
| 20260508154739 | 11 | 343 | 3.2 | 6.4 | 0.00 | 0.00 | 0.00 | 32 | 1015.0 |
| 20260508154239 | 11 | 117 | 3.2 | 4.8 | 0.00 | 0.00 | 0.00 | 30 | 1015.0 |
| 20260508153740 | 11 | 143 | 3.2 | 6.4 | 0.00 | 0.00 | 0.00 | 31 | 1015.0 |
| 20260508153240 | 11 | 81 | 3.2 | 8.0 | 0.00 | 0.00 | 0.00 | 31 | 1015.0 |
| 20260508152742 | 11 | 7 | 8.0 | 9.7 | 0.00 | 0.00 | 0.00 | 31 | 1015.0 |
| 20260508152240 | 11 | 148 | 4.8 | 6.4 | 0.00 | 0.00 | 0.00 | 30 | 1015.0 |
| 20260508151739 | 11 | 335 | 3.2 | 8.0 | 0.00 | 0.00 | 0.00 | 33 | 1016.0 |
| 20260508151240 | 11 | 61 | 1.6 | 6.4 | 0.00 | 0.00 | 0.00 | 34 | 1016.0 |
| 20260508150739 | 10 | 80 | 1.6 | 3.2 | 0.00 | 0.00 | 0.00 | 33 | 1016.0 |
| 20260508150241 | 10 | 161 | 0.0 | 1.6 | 0.00 | 0.00 | 0.00 | 31 | 1016.0 |
| 20260508145740 | 10 | 22 | 4.8 | 9.7 | 0.00 | 0.00 | 0.00 | 33 | 1016.0 |
| 20260508145240 | 10 | 338 | 4.8 | 9.7 | 0.00 | 0.00 | 0.00 | 33 | 1016.0 |
| 20260508144740 | 10 | 1 | 6.4 | 9.7 | 0.00 | 0.00 | 0.00 | 33 | 1016.0 |
| 20260508144239 | 10 | 10 | 3.2 | 8.0 | 0.00 | 0.00 | 0.00 | 35 | 1016.0 |
| 20260508143739 | 10 | 326 | 3.2 | 4.8 | 0.00 | 0.00 | 0.00 | 33 | 1016.0 |
| 20260508143240 | 10 | 43 | 1.6 | 4.8 | 0.00 | 0.00 | 0.00 | 33 | 1016.0 |
| 20260508142739 | 10 | 33 | 4.8 | 8.0 | 0.00 | 0.00 | 0.00 | 33 | 1017.0 |
| 20260508142239 | 10 | 76 | 3.2 | 6.4 | 0.00 | 0.00 | 0.00 | 31 | 1017.0 |
| 20260508141740 | 10 | 71 | 1.6 | 4.8 | 0.00 | 0.00 | 0.00 | 36 | 1017.0 |
| 20260508141239 | 10 | 333 | 3.2 | 6.4 | 0.00 | 0.00 | 0.00 | 35 | 1017.0 |
| 20260508140739 | 10 | 13 | 4.8 | 11.3 | 0.00 | 0.00 | 0.00 | 34 | 1017.0 |
| 20260508140239 | 10 | 289 | 3.2 | 6.4 | 0.00 | 0.00 | 0.00 | 33 | 1017.0 |
| 20260508135740 | 10 | 158 | 3.2 | 4.8 | 0.00 | 0.00 | 0.00 | 33 | 1017.0 |
| 20260508135240 | 10 | 342 | 3.2 | 6.4 | 0.00 | 0.00 | 0.00 | 39 | 1016.0 |
| 20260508134740 | 10 | 31 | 4.8 | 8.0 | 0.00 | 0.00 | 0.00 | 37 | 1016.0 |
| 20260508134239 | 9 | 159 | 0.0 | 3.2 | 0.00 | 0.00 | 0.00 | 36 | 1016.0 |
| 20260508133740 | 9 | 43 | 1.6 | 4.8 | 0.00 | 0.00 | 0.00 | 38 | 1016.0 |
| 20260508133239 | 9 | 84 | 3.2 | 4.8 | 0.00 | 0.00 | 0.00 | 39 | 1016.0 |
| 20260508132739 | 8 | 140 | 1.6 | 4.8 | 0.00 | 0.00 | 0.00 | 38 | 1016.0 |
| 20260508132240 | 8 | 163 | 1.6 | 4.8 | 0.00 | 0.00 | 0.00 | 40 | 1016.0 |
| 20260508131739 | 8 | 41 | 3.2 | 8.0 | 0.00 | 0.00 | 0.00 | 40 | 1016.0 |
| 20260508131239 | 8 | 122 | 1.6 | 4.8 | 0.00 | 0.00 | 0.00 | 39 | 1016.0 |
| 20260508130739 | 8 | 348 | 0.0 | 3.2 | 0.00 | 0.00 | 0.00 | 41 | 1016.0 |
| 20260508130242 | 8 | 125 | 0.0 | 1.6 | 0.00 | 0.00 | 0.00 | 40 | 1016.0 |
| 20260508125739 | 7 | 160 | 3.2 | 3.2 | 0.00 | 0.00 | 0.00 | 39 | 1016.0 |
| 20260508125240 | 7 | 84 | 1.6 | 3.2 | 0.00 | 0.00 | 0.00 | 41 | 1016.0 |
| 20260508124740 | 7 | 8 | 0.0 | 3.2 | 0.00 | 0.00 | 0.00 | 42 | 1016.0 |
| 20260508124239 | 7 | 128 | 1.6 | 3.2 | 0.00 | 0.00 | 0.00 | 41 | 1016.0 |
| 20260508123739 | 7 | 132 | 1.6 | 6.4 | 0.00 | 0.00 | 0.00 | 42 | 1016.0 |
| 20260508123239 | 7 | 39 | 1.6 | 4.8 | 0.00 | 0.00 | 0.00 | 42 | 1016.0 |
| 20260508122739 | 6 | 11 | 0.0 | 3.2 | 0.00 | 0.00 | 0.00 | 47 | 1016.0 |
| 20260508122240 | 6 | 148 | 6.4 | 9.7 | 0.00 | 0.00 | 0.00 | 43 | 1016.0 |
| 20260508121740 | 6 | 103 | 1.6 | 3.2 | 0.00 | 0.00 | 0.00 | 44 | 1016.0 |
| 20260508121241 | 6 | 161 | 3.2 | 3.2 | 0.00 | 0.00 | 0.00 | 43 | 1016.0 |
| 20260508120739 | 5 | 135 | 1.6 | 4.8 | 0.00 | 0.00 | 0.00 | 45 | 1016.0 |
| 20260508120239 | 4 | 0 | 0.0 | 0.0 | 0.00 | 0.00 | 0.00 | 47 | 1016.0 |
| 20260508115739 | 3 | 326 | 1.6 | 3.2 | 0.00 | 0.00 | 0.00 | 51 | 1016.0 |
| 20260508115240 | 3 | 237 | 1.6 | 3.2 | 0.00 | 0.00 | 0.00 | 51 | 1016.0 |
| 20260508114739 | 2 | 184 | 1.6 | 4.8 | 0.00 | 0.00 | 0.00 | 55 | 1015.0 |
| 20260508114239 | 2 | 192 | 3.2 | 6.4 | 0.00 | 0.00 | 0.00 | 56 | 1015.0 |
| 20260508113740 | 2 | 209 | 1.6 | 4.8 | 0.00 | 0.00 | 0.00 | 56 | 1015.0 |
| 20260508113240 | 2 | 244 | 1.6 | 3.2 | 0.00 | 0.00 | 0.00 | 55 | 1015.0 |
| 20260508112739 | 2 | 266 | 3.2 | 3.2 | 0.00 | 0.00 | 0.00 | 56 | 1015.0 |
| 20260508112241 | 2 | 225 | 1.6 | 3.2 | 0.00 | 0.00 | 0.00 | 57 | 1015.0 |
| 20260508111739 | 2 | 159 | 1.6 | 3.2 | 0.00 | 0.00 | 0.00 | 55 | 1015.0 |
| 20260508111241 | 2 | 309 | 1.6 | 1.6 | 0.00 | 0.00 | 0.00 | 55 | 1015.0 |
| 20260508110740 | 2 | 177 | 1.6 | 3.2 | 0.00 | 0.00 | 0.00 | 53 | 1015.0 |
| 20260508110239 | 2 | 238 | 1.6 | 3.2 | 0.00 | 0.00 | 0.00 | 56 | 1015.0 |
| 20260508105739 | 2 | 163 | 1.6 | 3.2 | 0.00 | 0.00 | 0.00 | 56 | 1015.0 |
| 20260508105239 | 2 | 206 | 3.2 | 4.8 | 0.00 | 0.00 | 0.00 | 56 | 1015.0 |
| 20260508104740 | 2 | 211 | 3.2 | 4.8 | 0.00 | 0.00 | 0.00 | 55 | 1015.0 |
| 20260508104240 | 2 | 245 | 0.0 | 1.6 | 0.00 | 0.00 | 0.00 | 55 | 1015.0 |
| 20260508103740 | 2 | 207 | 0.0 | 0.0 | 0.00 | 0.00 | 0.00 | 55 | 1015.0 |
| 20260508103239 | 2 | 191 | 3.2 | 4.8 | 0.00 | 0.00 | 0.00 | 54 | 1015.0 |
| 20260508102739 | 2 | 215 | 3.2 | 3.2 | 0.00 | 0.00 | 0.00 | 53 | 1015.0 |
| 20260508102240 | 3 | 182 | 1.6 | 3.2 | 0.00 | 0.00 | 0.00 | 53 | 1015.0 |
| 20260508101739 | 3 | 214 | 3.2 | 3.2 | 0.00 | 0.00 | 0.00 | 51 | 1015.0 |
| 20260508101241 | 3 | 254 | 1.6 | 3.2 | 0.00 | 0.00 | 0.00 | 47 | 1015.0 |
| 20260508100740 | 4 | 0 | 0.0 | 0.0 | 0.00 | 0.00 | 0.00 | 45 | 1015.0 |
| 20260508100240 | 4 | 34 | 1.6 | 1.6 | 0.00 | 0.00 | 0.00 | 44 | 1015.0 |
| 20260508095739 | 3 | 94 | 1.6 | 3.2 | 0.00 | 0.00 | 0.00 | 43 | 1015.0 |
| 20260508095239 | 3 | 104 | 3.2 | 4.8 | 0.00 | 0.00 | 0.00 | 45 | 1015.0 |
| 20260508094740 | 3 | 135 | 1.6 | 1.6 | 0.00 | 0.00 | 0.00 | 45 | 1015.0 |
| 20260508094239 | 4 | 173 | 0.0 | 0.0 | 0.00 | 0.00 | 0.00 | 46 | 1015.0 |
| 20260508093739 | 4 | 0 | 0.0 | 0.0 | 0.00 | 0.00 | 0.00 | 45 | 1015.0 |
| 20260508093239 | 5 | 197 | 3.2 | 6.4 | 0.00 | 0.00 | 0.00 | 41 | 1015.0 |
| 20260508092740 | 5 | 304 | 3.2 | 4.8 | 0.00 | 0.00 | 0.00 | 40 | 1015.0 |
| 20260508092239 | 5 | 301 | 3.2 | 4.8 | 0.00 | 0.00 | 0.00 | 40 | 1014.0 |
| 20260508091739 | 5 | 9 | 3.2 | 4.8 | 0.00 | 0.00 | 0.00 | 39 | 1014.0 |
| 20260508091240 | 5 | 39 | 6.4 | 11.3 | 0.00 | 0.00 | 0.00 | 39 | 1014.0 |
| 20260508090739 | 6 | 3 | 4.8 | 9.7 | 0.00 | 0.00 | 0.00 | 37 | 1014.0 |
| 20260508090240 | 6 | 353 | 3.2 | 9.7 | 0.00 | 0.00 | 0.00 | 37 | 1014.0 |
| 20260508085739 | 6 | 30 | 6.4 | 9.7 | 0.00 | 0.00 | 0.00 | 35 | 1014.0 |
| 20260508085239 | 6 | 15 | 6.4 | 9.7 | 0.00 | 0.00 | 0.00 | 34 | 1014.0 |
| 20260508084740 | 6 | 15 | 4.8 | 14.5 | 0.00 | 0.00 | 0.00 | 33 | 1014.0 |
| 20260508084239 | 6 | 0 | 3.2 | 6.4 | 0.00 | 0.00 | 0.00 | 33 | 1014.0 |
| 20260508083740 | 6 | 8 | 3.2 | 9.7 | 0.00 | 0.00 | 0.00 | 30 | 1014.0 |
| 20260508083240 | 6 | 19 | 4.8 | 9.7 | 0.00 | 0.00 | 0.00 | 28 | 1014.0 |
| 20260508082741 | 6 | 32 | 6.4 | 11.3 | 0.00 | 0.00 | 0.00 | 27 | 1014.0 |
| 20260508082239 | 6 | 34 | 3.2 | 8.0 | 0.00 | 0.00 | 0.00 | 26 | 1014.0 |
| 20260508081741 | 7 | 47 | 6.4 | 11.3 | 0.00 | 0.00 | 0.00 | 26 | 1014.0 |
| 20260508081239 | 6 | 31 | 4.8 | 12.9 | 0.00 | 0.00 | 0.00 | 27 | 1014.0 |
| 20260508080740 | 6 | 357 | 9.7 | 16.1 | 0.00 | 0.00 | 0.00 | 27 | 1014.0 |
| 20260508080239 | 6 | 6 | 4.8 | 8.0 | 0.00 | 0.00 | 0.00 | 27 | 1014.0 |
| 20260508075739 | 6 | 0 | 4.8 | 12.9 | 0.00 | 0.00 | 0.00 | 28 | 1014.0 |
| 20260508075239 | 6 | 6 | 6.4 | 11.3 | 0.00 | 0.00 | 0.00 | 27 | 1014.0 |
| 20260508074739 | 6 | 2 | 8.0 | 14.5 | 0.00 | 0.00 | 0.00 | 27 | 1014.0 |
| 20260508074240 | 6 | 2 | 6.4 | 14.5 | 0.00 | 0.00 | 0.00 | 28 | 1014.0 |
| 20260508073739 | 6 | 13 | 8.0 | 19.3 | 0.00 | 0.00 | 0.00 | 27 | 1014.0 |
| 20260508073242 | 6 | 21 | 4.8 | 9.7 | 0.00 | 0.00 | 0.00 | 27 | 1014.0 |
| 20260508072739 | 6 | 12 | 6.4 | 9.7 | 0.00 | 0.00 | 0.00 | 29 | 1014.0 |
| 20260508072239 | 6 | 13 | 3.2 | 8.0 | 0.00 | 0.00 | 0.00 | 29 | 1014.0 |
| 20260508071739 | 6 | 21 | 8.0 | 22.5 | 0.00 | 0.00 | 0.00 | 29 | 1014.0 |
| 20260508071240 | 6 | 52 | 3.2 | 8.0 | 0.00 | 0.00 | 0.00 | 29 | 1014.0 |
| 20260508070739 | 6 | 5 | 9.7 | 16.1 | 0.00 | 0.00 | 0.00 | 28 | 1014.0 |
| 20260508070240 | 6 | 359 | 6.4 | 17.7 | 0.00 | 0.00 | 0.00 | 30 | 1014.0 |
| 20260508065739 | 5 | 9 | 6.4 | 9.7 | 0.00 | 0.00 | 0.00 | 31 | 1014.0 |
| 20260508065243 | 5 | 26 | 4.8 | 11.3 | 0.00 | 0.00 | 0.00 | 36 | 1014.0 |
| 20260508064740 | 4 | 347 | 4.8 | 9.7 | 0.00 | 0.00 | 0.00 | 39 | 1014.0 |
| 20260508064242 | 5 | 100 | 0.0 | 1.6 | 0.00 | 0.00 | 0.00 | 36 | 1014.0 |
| 20260508063740 | 4 | 17 | 1.6 | 3.2 | 0.00 | 0.00 | 0.00 | 39 | 1014.0 |
| 20260508063240 | 3 | 175 | 1.6 | 4.8 | 0.00 | 0.00 | 0.00 | 43 | 1014.0 |
| 20260508062739 | 2 | 120 | 3.2 | 6.4 | 0.00 | 0.00 | 0.00 | 54 | 1014.0 |
| 20260508062239 | 2 | 168 | 3.2 | 8.0 | 0.00 | 0.00 | 0.00 | 57 | 1014.0 |
| 20260508061739 | 1 | 161 | 4.8 | 6.4 | 0.00 | 0.00 | 0.00 | 63 | 1014.0 |
| 20260508061239 | 1 | 212 | 3.2 | 6.4 | 0.00 | 0.00 | 0.00 | 64 | 1014.0 |
| 20260508060739 | 1 | 199 | 4.8 | 6.4 | 0.00 | 0.00 | 0.00 | 70 | 1014.0 |
| 20260508060239 | 1 | 192 | 1.6 | 3.2 | 0.00 | 0.00 | 0.00 | 68 | 1014.0 |
| 20260508055741 | 1 | 191 | 3.2 | 4.8 | 0.00 | 0.00 | 0.00 | 77 | 1014.0 |
| 20260508055239 | 1 | 242 | 1.6 | 3.2 | 0.00 | 0.00 | 0.00 | 77 | 1014.0 |
| 20260508054739 | 1 | 200 | 4.8 | 6.4 | 0.00 | 0.00 | 0.00 | 73 | 1014.0 |
| 20260508054240 | 0 | 132 | 0.0 | 1.6 | 0.00 | 0.00 | 0.00 | 77 | 1014.0 |
| 20260508053739 | 1 | 326 | 1.6 | 4.8 | 0.00 | 0.00 | 0.00 | 79 | 1014.0 |
| 20260508053239 | 1 | 302 | 1.6 | 3.2 | 0.00 | 0.00 | 0.00 | 79 | 1014.0 |
| 20260508052739 | 1 | 235 | 1.6 | 3.2 | 0.00 | 0.00 | 0.00 | 73 | 1014.0 |
| 20260508052239 | 1 | 206 | 1.6 | 4.8 | 0.00 | 0.00 | 0.00 | 73 | 1014.0 |
| 20260508051739 | 1 | 199 | 1.6 | 3.2 | 0.00 | 0.00 | 0.00 | 73 | 1014.0 |
| 20260508051239 | 0 | 198 | 3.2 | 4.8 | 0.00 | 0.00 | 0.00 | 76 | 1014.0 |
| 20260508050741 | 0 | 0 | 0.0 | 0.0 | 0.00 | 0.00 | 0.00 | 80 | 1014.0 |
| 20260508050239 | 1 | 0 | 0.0 | 0.0 | 0.00 | 0.00 | 0.00 | 75 | 1014.0 |
| 20260508045739 | 0 | 210 | 3.2 | 6.4 | 0.00 | 0.00 | 0.00 | 76 | 1014.0 |
| 20260508045239 | 0 | 208 | 3.2 | 6.4 | 0.00 | 0.00 | 0.00 | 77 | 1014.0 |
| 20260508044744 | 0 | 216 | 1.6 | 3.2 | 0.00 | 0.00 | 0.00 | 83 | 1014.0 |
| 20260508044239 | 0 | 0 | 0.0 | 0.0 | 0.00 | 0.00 | 0.00 | 82 | 1014.0 |
| 20260508043739 | 0 | 239 | 1.6 | 1.6 | 0.00 | 0.00 | 0.00 | 81 | 1014.0 |
| 20260508043239 | 0 | 281 | 3.2 | 3.2 | 0.00 | 0.00 | 0.00 | 80 | 1014.0 |
| 20260508042739 | 0 | 235 | 0.0 | 1.6 | 0.00 | 0.00 | 0.00 | 80 | 1014.0 |
| 20260508042239 | 0 | 293 | 1.6 | 3.2 | 0.00 | 0.00 | 0.00 | 81 | 1014.0 |
| 20260508041739 | 0 | 231 | 1.6 | 3.2 | 0.00 | 0.00 | 0.00 | 79 | 1014.0 |
| 20260508041239 | 0 | 257 | 0.0 | 1.6 | 0.00 | 0.00 | 0.00 | 80 | 1014.0 |
| 20260508040739 | 0 | 304 | 0.0 | 1.6 | 0.00 | 0.00 | 0.00 | 81 | 1014.0 |
| 20260508040239 | 0 | 263 | 3.2 | 4.8 | 0.00 | 0.00 | 0.00 | 79 | 1014.0 |
| 20260508035739 | 0 | 359 | 3.2 | 3.2 | 0.00 | 0.00 | 0.00 | 80 | 1014.0 |
| 20260508035239 | 0 | 319 | 3.2 | 4.8 | 0.00 | 0.00 | 0.00 | 82 | 1014.0 |
| 20260508034739 | 0 | 310 | 1.6 | 3.2 | 0.00 | 0.00 | 0.00 | 83 | 1014.0 |
| 20260508034240 | 0 | 316 | 3.2 | 4.8 | 0.00 | 0.00 | 0.00 | 82 | 1014.0 |
| 20260508033740 | 0 | 0 | 0.0 | 0.0 | 0.00 | 0.00 | 0.00 | 82 | 1014.0 |
| 20260508033239 | 1 | 316 | 1.6 | 3.2 | 0.00 | 0.00 | 0.00 | 80 | 1014.0 |